timestamp,wind_dir_avg,wind_spd_avg,wind_spd_max_dir,wind_spd_gust,battery_voltage,lat,long
2022-01-13 00:04:01+00:00,254.0,8.91,253.0,13.24,12.41,47.59359,-54.27349
2022-01-13 00:14:01+00:00,258.0,8.05,264.0,11.37,12.41,47.59359,-54.27349
2022-01-13 00:24:01+00:00,255.0,8.25,256.0,13.33,12.41,47.59359,-54.27349
2022-01-13 00:34:01+00:00,237.0,7.22,251.0,10.61,12.41,47.59359,-54.27349
2022-01-13 00:44:01+00:00,241.0,8.48,251.0,13.41,12.41,47.59359,-54.27349
2022-01-13 00:54:01+00:00,242.0,7.18,245.0,8.97,12.41,47.59359,-54.27349
2022-01-13 01:04:01+00:00,257.0,8.1,266.0,13.17,12.41,47.59359,-54.27349
2022-01-13 01:14:00+00:00,255.0,8.42,259.0,12.77,12.41,47.59359,-54.27349
2022-01-13 01:24:00+00:00,262.0,9.49,262.0,13.01,12.41,47.59359,-54.27349
2022-01-13 01:34:00+00:00,257.0,8.22,266.0,13.1,12.41,47.59359,-54.27349
2022-01-13 01:44:00+00:00,262.0,11.91,265.0,14.44,12.41,47.59359,-54.27349
2022-01-13 01:54:00+00:00,259.0,11.83,262.0,14.42,12.41,47.59359,-54.27349
2022-01-13 02:04:00+00:00,262.0,11.07,267.0,13.96,12.41,47.59359,-54.27349
2022-01-13 02:14:01+00:00,255.0,10.63,249.0,13.82,12.41,47.59359,-54.27349
2022-01-13 02:24:01+00:00,257.0,12.4,255.0,15.12,12.41,47.59359,-54.27349
2022-01-13 02:34:01+00:00,263.0,11.46,263.0,13.33,12.41,47.59359,-54.27349
2022-01-13 02:44:01+00:00,257.0,9.24,260.0,13.53,12.41,47.59359,-54.27349
2022-01-13 02:54:01+00:00,260.0,11.28,259.0,13.44,12.41,47.59359,-54.27349
2022-01-13 03:04:01+00:00,256.0,12.4,260.0,14.73,12.41,47.59359,-54.27349
2022-01-13 03:14:01+00:00,256.0,12.66,258.0,14.76,12.33,47.59359,-54.27349
2022-01-13 03:24:01+00:00,250.0,9.38,258.0,13.18,12.33,47.59359,-54.27349
2022-01-13 03:34:01+00:00,245.0,7.7,244.0,8.92,12.33,47.59359,-54.27349
2022-01-13 03:44:01+00:00,252.0,9.05,256.0,13.74,12.33,47.59359,-54.27349
2022-01-13 03:54:01+00:00,246.0,6.82,249.0,8.63,12.33,47.59359,-54.27349
2022-01-13 04:04:01+00:00,250.0,6.53,253.0,8.18,12.33,47.59359,-54.27349
2022-01-13 04:14:00+00:00,255.0,10.84,253.0,13.61,12.33,47.59359,-54.27349
2022-01-13 04:24:00+00:00,240.0,6.09,244.0,8.76,12.33,47.59359,-54.27349
2022-01-13 04:34:00+00:00,243.0,5.8,248.0,8.61,12.33,47.59359,-54.27349
2022-01-13 04:44:00+00:00,249.0,6.74,231.0,8.55,12.33,47.59359,-54.27349
2022-01-13 04:54:00+00:00,244.0,4.71,250.0,7.72,12.33,47.59359,-54.27349
2022-01-13 05:04:00+00:00,241.0,5.61,250.0,7.93,12.33,47.59359,-54.27349
2022-01-13 05:14:01+00:00,251.0,5.58,262.0,7.48,12.33,47.59359,-54.27349
2022-01-13 05:24:01+00:00,254.0,6.01,253.0,7.85,12.33,47.59359,-54.27349
2022-01-13 05:34:01+00:00,252.0,6.73,256.0,8.19,12.33,47.59359,-54.27349
2022-01-13 05:44:01+00:00,241.0,5.48,242.0,6.8,12.33,47.59359,-54.27349
2022-01-13 05:54:01+00:00,251.0,7.12,248.0,8.94,12.33,47.59359,-54.27349
2022-01-13 06:04:01+00:00,245.0,7.48,248.0,8.99,12.33,47.59359,-54.27349
2022-01-13 06:14:00+00:00,256.0,8.51,266.0,10.9,12.33,47.59359,-54.27349
2022-01-13 06:24:00+00:00,263.0,9.71,268.0,13.37,12.33,47.59359,-54.27349
2022-01-13 06:34:00+00:00,259.0,7.74,257.0,8.46,12.33,47.59359,-54.27349
2022-01-13 06:44:00+00:00,261.0,8.02,262.0,8.81,12.33,47.59359,-54.27349
2022-01-13 06:54:00+00:00,257.0,8.18,250.0,8.71,12.33,47.59359,-54.27349
2022-01-13 07:04:00+00:00,249.0,8.24,242.0,8.96,12.33,47.59359,-54.27349
2022-01-13 07:14:00+00:00,241.0,9.19,244.0,10.16,12.25,47.59359,-54.27349
2022-01-13 07:24:00+00:00,249.0,8.01,253.0,9.15,12.25,47.59359,-54.27349
2022-01-13 07:34:00+00:00,246.0,9.06,249.0,11.34,12.25,47.59359,-54.27349
2022-01-13 07:44:00+00:00,240.0,8.79,238.0,9.73,12.25,47.59359,-54.27349
2022-01-13 07:54:00+00:00,244.0,7.63,245.0,9.15,12.25,47.59359,-54.27349
2022-01-13 08:04:00+00:00,243.0,6.35,247.0,8.33,12.25,47.59359,-54.27349
2022-01-13 08:14:01+00:00,241.0,5.37,240.0,6.13,12.25,47.59359,-54.27349
2022-01-13 08:24:01+00:00,232.0,8.02,232.0,9.5,12.25,47.59359,-54.27349
2022-01-13 08:34:01+00:00,229.0,9.32,238.0,11.38,12.25,47.59359,-54.27349
2022-01-13 08:44:01+00:00,229.0,10.47,228.0,11.97,12.25,47.59359,-54.27349
2022-01-13 08:54:01+00:00,222.0,11.79,219.0,13.39,12.25,47.59359,-54.27349
2022-01-13 09:04:01+00:00,225.0,11.3,217.0,12.86,12.25,47.59359,-54.27349
2022-01-13 09:14:00+00:00,231.0,10.65,237.0,12.51,12.25,47.59359,-54.27349
2022-01-13 09:24:00+00:00,227.0,11.7,225.0,14.32,12.25,47.59359,-54.27349
2022-01-13 09:34:00+00:00,217.0,12.74,219.0,15.13,12.25,47.59359,-54.27349
2022-01-13 09:44:00+00:00,216.0,13.28,211.0,15.42,12.25,47.59359,-54.27349
2022-01-13 09:54:00+00:00,219.0,12.41,216.0,15.15,12.25,47.59359,-54.27349
2022-01-13 10:04:00+00:00,216.0,13.0,213.0,14.58,12.25,47.59359,-54.27349
2022-01-13 10:14:00+00:00,219.0,13.01,216.0,14.28,12.17,47.59359,-54.27349
2022-01-13 10:24:00+00:00,214.0,13.65,217.0,15.31,12.17,47.59359,-54.27349
2022-01-13 10:34:00+00:00,217.0,12.57,215.0,13.7,12.17,47.59359,-54.27349
2022-01-13 10:44:00+00:00,225.0,11.34,231.0,13.05,12.17,47.59359,-54.27349
2022-01-13 10:54:00+00:00,225.0,12.2,223.0,14.01,12.17,47.59359,-54.27349
2022-01-13 11:04:00+00:00,217.0,12.67,217.0,15.58,12.17,47.59359,-54.27349
2022-01-13 11:14:01+00:00,218.0,13.76,217.0,15.89,12.25,47.59359,-54.27349
2022-01-13 11:24:01+00:00,215.0,12.81,221.0,15.19,12.25,47.59359,-54.27349
2022-01-13 11:34:01+00:00,215.0,12.89,218.0,14.39,12.25,47.59359,-54.27349
2022-01-13 11:44:01+00:00,217.0,12.22,225.0,15.41,12.25,47.59359,-54.27349
2022-01-13 11:54:01+00:00,219.0,13.17,211.0,16.92,12.25,47.59359,-54.27349
2022-01-13 12:04:01+00:00,220.0,13.34,221.0,15.07,12.25,47.59359,-54.27349
2022-01-13 12:14:01+00:00,192.0,12.4,210.0,14.85,12.17,47.59359,-54.27349
2022-01-13 12:24:01+00:00,200.0,10.78,213.0,13.41,12.17,47.59359,-54.27349
2022-01-13 12:34:01+00:00,217.0,13.09,220.0,14.76,12.17,47.59359,-54.27349
2022-01-13 12:44:01+00:00,187.0,9.89,201.0,11.28,12.17,47.59359,-54.27349
2022-01-13 12:54:01+00:00,184.0,9.66,215.0,11.7,12.17,47.59359,-54.27349
2022-01-13 13:04:01+00:00,199.0,12.12,219.0,15.16,12.17,47.59359,-54.27349
2022-01-13 13:14:00+00:00,195.0,10.15,217.0,14.77,12.33,47.59359,-54.27349
2022-01-13 13:24:00+00:00,192.0,11.52,196.0,13.95,12.33,47.59359,-54.27349
2022-01-13 13:34:00+00:00,205.0,12.46,214.0,15.35,12.33,47.59359,-54.27349
2022-01-13 13:44:00+00:00,203.0,12.71,206.0,14.97,12.33,47.59359,-54.27349
2022-01-13 13:54:00+00:00,201.0,13.65,213.0,16.9,12.33,47.59359,-54.27349
2022-01-13 14:04:00+00:00,194.0,11.79,202.0,13.36,12.33,47.59359,-54.27349
2022-01-13 14:14:01+00:00,185.0,11.71,186.0,13.25,12.41,47.59359,-54.27349
2022-01-13 14:24:01+00:00,192.0,11.41,204.0,15.86,12.41,47.59359,-54.27349
2022-01-13 14:34:01+00:00,195.0,11.96,218.0,14.42,12.41,47.59359,-54.27349
2022-01-13 14:44:01+00:00,192.0,12.39,217.0,15.16,12.41,47.59359,-54.27349
2022-01-13 14:54:01+00:00,205.0,12.39,217.0,14.41,12.41,47.59359,-54.27349
2022-01-13 15:04:01+00:00,315.0,0.01,189.0,0.0,12.41,47.59359,-54.27349
2022-01-13 15:14:01+00:00,315.0,0.01,206.0,0.0,12.33,47.59359,-54.27349
2022-01-13 15:24:01+00:00,193.0,11.34,213.0,14.04,12.33,47.59359,-54.27349
2022-01-13 15:34:01+00:00,315.0,0.01,209.0,0.0,12.33,47.59359,-54.27349
2022-01-13 15:44:01+00:00,200.0,12.1,214.0,15.49,12.33,47.59359,-54.27349
2022-01-13 15:54:01+00:00,202.0,13.22,212.0,16.11,12.33,47.59359,-54.27349
2022-01-13 16:04:01+00:00,202.0,11.59,216.0,14.74,12.33,47.59359,-54.27349
2022-01-13 16:14:01+00:00,198.0,11.61,197.0,12.68,12.33,47.59359,-54.27349
2022-01-13 16:24:01+00:00,201.0,12.79,217.0,15.86,12.33,47.59359,-54.27349
2022-01-13 16:34:01+00:00,199.0,11.67,212.0,13.73,12.33,47.59359,-54.27349
2022-01-13 16:44:01+00:00,209.0,13.85,214.0,15.72,12.33,47.59359,-54.27349
2022-01-13 16:54:01+00:00,208.0,13.98,210.0,17.59,12.33,47.59359,-54.27349
2022-01-13 17:04:01+00:00,214.0,12.4,211.0,15.96,12.33,47.59359,-54.27349
2022-01-13 17:14:00+00:00,210.0,14.68,209.0,16.85,12.49,47.59359,-54.27349
2022-01-13 17:24:00+00:00,208.0,14.17,208.0,17.25,12.49,47.59359,-54.27349
2022-01-13 17:34:00+00:00,202.0,12.1,209.0,14.54,12.49,47.59359,-54.27349
2022-01-13 17:44:00+00:00,195.0,14.32,209.0,16.56,12.49,47.59359,-54.27349
2022-01-13 17:54:00+00:00,203.0,15.04,205.0,17.14,12.49,47.59359,-54.27349
2022-01-13 18:04:00+00:00,200.0,12.85,204.0,14.79,12.49,47.59359,-54.27349
2022-01-13 18:14:00+00:00,202.0,13.49,204.0,16.13,12.49,47.59359,-54.27349
2022-01-13 18:24:00+00:00,204.0,14.51,209.0,17.03,12.49,47.59359,-54.27349
2022-01-13 18:34:00+00:00,202.0,11.99,197.0,13.71,12.49,47.59359,-54.27349
2022-01-13 18:44:00+00:00,189.0,13.65,195.0,15.16,12.49,47.59359,-54.27349
2022-01-13 18:54:00+00:00,196.0,12.88,193.0,15.17,12.49,47.59359,-54.27349
2022-01-13 19:04:00+00:00,192.0,12.7,198.0,14.59,12.49,47.59359,-54.27349
2022-01-13 19:14:00+00:00,192.0,11.92,201.0,14.85,12.33,47.59359,-54.27349
2022-01-13 19:24:00+00:00,187.0,14.3,183.0,16.8,12.33,47.59359,-54.27349
2022-01-13 19:34:00+00:00,188.0,15.45,183.0,17.83,12.33,47.59359,-54.27349
2022-01-13 19:44:00+00:00,196.0,14.28,197.0,17.1,12.33,47.59359,-54.27349
2022-01-13 19:54:00+00:00,203.0,13.11,200.0,15.2,12.33,47.59359,-54.27349
2022-01-13 20:04:00+00:00,205.0,12.89,198.0,15.62,12.33,47.59359,-54.27349
2022-01-13 20:14:01+00:00,200.0,15.04,201.0,16.93,12.25,47.59359,-54.27349
2022-01-13 20:24:01+00:00,207.0,11.76,204.0,13.44,12.25,47.59359,-54.27349
2022-01-13 20:34:01+00:00,216.0,11.25,217.0,13.87,12.25,47.59359,-54.27349
2022-01-13 20:44:01+00:00,215.0,13.95,218.0,16.5,12.25,47.59359,-54.27349
2022-01-13 20:54:01+00:00,216.0,13.29,210.0,15.51,12.25,47.59359,-54.27349
2022-01-13 21:04:01+00:00,213.0,12.64,213.0,14.97,12.25,47.59359,-54.27349
2022-01-13 21:14:01+00:00,215.0,13.55,212.0,16.44,12.25,47.59359,-54.27349
2022-01-13 21:24:01+00:00,214.0,13.44,214.0,16.58,12.25,47.59359,-54.27349
2022-01-13 21:34:01+00:00,213.0,14.04,206.0,19.14,12.25,47.59359,-54.27349
2022-01-13 21:44:01+00:00,215.0,13.44,211.0,15.53,12.25,47.59359,-54.27349
2022-01-13 21:54:01+00:00,210.0,13.24,210.0,15.86,12.25,47.59359,-54.27349
2022-01-13 22:04:01+00:00,212.0,13.25,206.0,15.34,12.25,47.59359,-54.27349
2022-01-13 22:14:01+00:00,214.0,13.41,215.0,15.46,12.25,47.59359,-54.27349
2022-01-13 22:24:01+00:00,216.0,11.11,214.0,13.66,12.25,47.59359,-54.27349
2022-01-13 22:34:01+00:00,218.0,11.27,221.0,12.85,12.25,47.59359,-54.27349
2022-01-13 22:44:01+00:00,215.0,12.1,216.0,13.44,12.25,47.59359,-54.27349
2022-01-13 22:54:01+00:00,217.0,11.41,212.0,13.31,12.25,47.59359,-54.27349
2022-01-13 23:04:01+00:00,216.0,10.09,216.0,11.34,12.25,47.59359,-54.27349
2022-01-13 23:14:01+00:00,216.0,11.25,206.0,13.76,12.25,47.59359,-54.27349
2022-01-13 23:24:01+00:00,214.0,11.07,210.0,13.27,12.25,47.59359,-54.27349
2022-01-13 23:34:01+00:00,215.0,11.39,214.0,13.03,12.25,47.59359,-54.27349
2022-01-13 23:44:01+00:00,218.0,9.36,222.0,10.33,12.25,47.59359,-54.27349
2022-01-13 23:54:01+00:00,219.0,8.53,219.0,9.56,12.25,47.59359,-54.27349
